Tracking 31027 objects as of 19-Jul-2025
HD Live streaming from Space Station
objects crossing your sky now

FENGYUN 1C DEB

Track FENGYUN 1C DEB now!
10-day predictions


NORAD ID: 37474
Int'l Code: 1999-025EJU
Perigee: 565.5 km
Apogee: 763.2 km
Inclination: 99.2 °
Period: 97.9 minutes
Semi major axis: 7035 km
RCS: 0.0095 m2 (small)
Launch date: May 10, 1999
Source: People's Republic of China (PRC)
Launch site: Taiyaun Space Center, China (TSC)

Note: This is SATELLITE DEBRIS
Your satellite tracking list
IRIDIUM 33 DEB
Track 1 satellite(s)




NASA's NSSDC Master Catalog

Two Line Element Set (TLE):
1 37474U 99025EJU 25196.25237389  .00006732  00000-0  94531-3 0  9995
2 37474  99.1772  21.9640 0140478 241.3102 117.3920 14.71215727809424
Source of the keplerian elements: AFSPC